Overview Statistics Trail Chart Weather Telemetry Raw packets
 

This is the latest recevied weather packets stored in our database for station/object IK1QAD-3. If no packets are shown the sender has not sent any weather packets the latest 10 day(s).

<< 104 105 106 107 108 109 110 >>
Time Temp. Humidity Pressure Rain* Wind** Luminosity Snow
1787820520 29.44° C 63% 1016.4 hPa 0 mm - - -
1787820212 29.44° C 63% 1016.4 hPa 0 mm - - -
1787819912 29.44° C 67% 1016.3 hPa 0 mm - - -
1787819608 28.89° C 66% 1016.2 hPa 0 mm - - -
1787819320 28.89° C 66% 1016.2 hPa 0 mm - - -
1787819016 28.89° C 67% 1016.2 hPa 0 mm - - -
1787818709 28.89° C 66% 1016.1 hPa 0 mm - - -
1787818406 28.89° C 66% 1016.1 hPa 0 mm - - -
1787818104 28.89° C 67% 1016.1 hPa 0 mm - - -
1787817818 28.89° C 67% 1016.1 hPa 0 mm - - -
1787817512 28.33° C 69% 1016 hPa 0 mm - - -
1787817205 28.33° C 68% 1015.9 hPa 0 mm - - -
1787816904 28.33° C 68% 1016 hPa 0 mm - - -
1787816615 28.33° C 68% 1015.9 hPa 0 mm - - -
1787816312 28.33° C 68% 1016.1 hPa 0 mm - - -
1787816010 28.33° C 69% 1016.2 hPa 0 mm - - -
1787815721 27.78° C 70% 1016.2 hPa 0 mm - - -
1787815412 27.78° C 69% 1016 hPa 0 mm - - -
1787815105 27.78° C 67% 1016.1 hPa 0 mm - - -
1787814823 27.78° C 69% 1016.1 hPa 0 mm - - -
1787814519 27.22° C 71% 1016.2 hPa 0 mm - - -
1787814213 27.22° C 72% 1016.2 hPa 0 mm - - -
1787813909 27.22° C 71% 1016.3 hPa 0 mm - - -
1787813623 26.67° C 72% 1016.2 hPa 0 mm - - -
1787813320 26.67° C 72% 1016.3 hPa 0 mm - - -

* Rain latest hour (hover to see other rain measurements)
** Current wind speed in m/s (hover to see current wind gust speed)